User: anonymous   Login
Location: Deer Lake
(49.1830°N, 57.4330°W)
Time: 21:07:21
(UTC-03:-30)
Language:

Cosmos 1707 - Orbit

View from above orbital plane
View from above orbital plane
View from above satellite
View from above satellite

Ground track
Ground track

The orbit data is extracted from the following two-line orbital elements,

1 16326U 85113A   16040.15341328  .00003255  00000-0  18633-3 0  9993
2 16326  82.5157 333.3118 0010280 197.5385 162.5493 15.12277399642658
Epoch (UTC): 09 February 2016 03:40:54
Eccentricity: 0.0010280
inclination: 82.5157°
perigee height: 522 km
apogee height: 536 km
right ascension of ascending node: 333.3118°
argument of perigee: 197.5385°
revolutions per day: 15.12277399
mean anomaly at epoch: 162.5493°
orbit number at epoch: 64265

The dashed part of the orbit path shows where the satellite is in the earth's shadow,  

DLR